Location: Slanting_Bridge
(35.6330°N, 80.9830°W)
Time: 05:39:17
(UTC-04:00)

Hamsat - Visible Passes

Search period start: 26 April 2018 00:00
Search period end: 06 May 2018 00:00
Orbit: 585 x 618 km, 97.7° (Epoch: 25 April)

Date Brightness Start Highest point End Pass type
(mag) Time Alt. Az. Time Alt. Az. Time Alt. Az.
26 Apr ? 05:02:45 10° NNE 05:06:56 77° ESE 05:09:49 19° S visible
27 Apr ? 05:14:15 10° N 05:18:25 76° WNW 05:21:32 17° SSW visible
28 Apr ? 05:25:49 10° N 05:29:52 54° WNW 05:33:14 14° SSW visible
29 Apr ? 04:03:18 10° ENE 04:05:25 14° E 04:07:32 10° SE visible
29 Apr ? 05:37:27 10° N 05:41:19 38° WNW 05:44:56 11° SW visible
30 Apr ? 04:14:03 10° NE 04:17:00 19° E 04:19:51 10° SE visible
30 Apr ? 05:49:11 10° NNW 05:52:44 28° WNW 05:56:16 10° SW visible
01 May ? 04:25:05 10° NE 04:28:34 25° E 04:31:33 12° SSE visible
01 May ? 06:01:01 10° NNW 06:04:09 21° WNW 06:07:15 10° WSW visible
02 May ? 04:36:17 10° NNE 04:40:05 35° E 04:43:14 14° SSE visible
03 May ? 04:47:35 10° NNE 04:51:37 49° E 04:54:56 14° S visible
04 May ? 04:58:59 10° NNE 05:03:07 70° ESE 05:06:37 14° S visible
05 May ? 05:10:26 10° N 05:14:35 84° WNW 05:18:19 13° SSW visible
